Regional Weather Roundup
Issued by NWS

Home | Current Version | Previous Version | Graphics & Text | Print | Product List | Glossary On
Versions: 1 2 3 4 5 6 7 8 9 10 11 12 13 14 15 16 17 18 19 20 21 22 23 24 25 26 27 28 29 30 31 32 33 34 35 36 37 38 39 40 41 42 43 44 45 46 47 48 49 50
000
ASUS43 KMKX 240911
RWRWI

WISCONSIN REGIONAL WEATHER ROUNDUP
NATIONAL WEATHER SERVICE MILWAUKEE/SULLIVAN WI
400 AM CDT SUN JUL 24 2016

NOTE: "FAIR" INDICATES FEW OR NO CLOUDS BELOW 12,000 FEET WITH NO
SIGNIFICANT WEATHER AND/OR OBSTRUCTIONS TO VISIBILITY.

WIZ001-002-006>008-014>016-023>028-241000-
NORTHWEST WISCONSIN

CITY           SKY/WX    TMP DP  RH WIND       PRES   REMARKS
SUPERIOR ARPT  CLOUDY    61  61 100 NE8       29.76R
ASHLAND        LGT RAIN  70  68  93 S14G22    29.73F
HAYWARD        TSTM      68  65  90 E8        29.78F FOG
SIREN          LGT RAIN  66  64  94 SE9G16    29.77F
CUMBERLAND     TSTM      66  64  94 N8        29.83R
RICE LAKE      TSTM      68  66  93 N9G23     29.87R
CHETEK         CLOUDY    69  69 100 CALM      29.80F FOG
LADYSMITH      CLOUDY    70  68  94 CALM      29.84S
EAU CLAIRE     CLOUDY    71  70  96 NE3       29.78S
MENOMONIE      CLOUDY    71  70  98 E5        29.77F
NEW RICHMOND   CLOUDY    72  71  98 N3        29.78R FOG
OSCEOLA        HVY RAIN  69  69 100 NE10      29.81R
$$

WIZ003>005-009-010-017-018-241000-
NORTH CENTRAL WISCONSIN

CITY           SKY/WX    TMP DP  RH WIND       PRES   REMARKS
MANITOWISH WTR CLOUDY    68  68 100 SW6       29.84S
ARBOR VITAE    CLOUDY    72  70  95 SW7       29.85R
WOODRUFF       CLOUDY    72  70  95 SW7       29.85R
RHINELANDER    CLOUDY    70  68  93 S6        29.86S
EAGLE RIVER    CLOUDY    68  68 100 CALM      29.85S
LAND O LAKES   CLOUDY    69  68  98 CALM      29.86S
PHILLIPS       CLOUDY    68  67  99 S3        29.82S
TOMAHAWK       CLOUDY    67  66  96 CALM      29.85S FOG
MEDFORD        CLOUDY    68  68 100 S5        29.83F
MERRILL        CLOUDY    69  69 100 CALM      29.86R
$$

WIZ029-030-035-036-043>047-241000-
CENTRAL WISCONSIN

CITY           SKY/WX    TMP DP  RH WIND       PRES   REMARKS
WAUSAU         CLOUDY    70  69  97 S9        29.83R
MOSINEE        CLOUDY    68  68 100 SE5       29.85F
MARSHFIELD     CLOUDY    71  68  90 S5        29.83S
STEVENS POINT  CLOUDY    69  69  99 CALM      29.85S
WAUPACA        CLOUDY    73  73  99 CALM      29.84F
WAUTOMA        CLOUDY    71  70  96 SE5       29.85F
WISC RAPIDS    CLOUDY    71  68  90 CALM      29.85S
CAMP DOUGLAS   CLOUDY    73  72  95 VRB5      29.82S
$$

WIZ011>013-019>022-031-037>040-048>050-241000-
NORTHEAST WISCONSIN

CITY           SKY/WX    TMP DP  RH WIND       PRES   REMARKS
ANTIGO         CLOUDY    68  68 100 CALM      29.86S
SHAWANO        CLOUDY    73  70  91 S3        29.84S
OCONTO         CLOUDY   N/A N/A N/A CALM      29.82F
STURGEON BAY   CLOUDY    69  67  93 S5        29.85F
GREEN BAY      CLOUDY    72  72 100 S10       29.84F
MANITOWOC      TSTM      70  67  90 S16       29.86F
APPLETON       CLOUDY    70  70 100 S8        29.84F
CLINTONVILLE   CLOUDY    70  70 100 S7        29.84S
OSHKOSH        CLOUDY    72  69  90 N7        29.87R
$$

WIZ032>034-041-042-053>061-241000-
SOUTHWEST WISCONSIN

CITY           SKY/WX    TMP DP  RH WIND       PRES   REMARKS
LA CROSSE      CLOUDY    76  72  87 SE6       29.79S
SPARTA         CLOUDY    73  72  96 SW3       29.82S
VIROQUA        CLOUDY    73  73 100 S7        29.84F
BOSCOBEL       CLOUDY    77  74  90 CALM      29.83S
PRAIRIE DU CHI CLEAR     78  75  89 SE3       29.81S HX  81
PLATTEVILLE    CLEAR     73  73 100 S8        29.87S
$$

WIZ056-057-062-063-064-067-068-241000-
SOUTH CENTRAL WISCONSIN

CITY           SKY/WX    TMP DP  RH WIND       PRES   REMARKS
REEDSBURG      CLOUDY    72  72 100 S6        29.84F
BARABOO/DELLS  CLOUDY    73  70  91 S10       29.84F
LONE ROCK      CLOUDY    74  71  91 CALM      29.84F
MINERAL POINT  CLEAR     72  70  94 SE6       29.87S
MADISON        CLEAR     72  69  90 S8        29.85F
MIDDLETON      PTCLDY    73  71  95 S3        29.86F
WATERTOWN      CLEAR     69  69 100 S8        29.86F
MONROE         CLEAR     70  70 100 S13       29.87F
JANESVILLE     PTCLDY    72  70  94 S5        29.87F
$$

WIZ051-052-058>065-066-070>072-241000-
SOUTHEAST WISCONSIN

CITY           SKY/WX    TMP DP  RH WIND       PRES   REMARKS
MILWAUKEE      CLOUDY    73  69  87 S12       29.86F
WAUKESHA       PTCLDY    68  66  94 S7        29.88F
MILWAUKEE/TIMM CLOUDY    70  64  83 S8        29.87F
RACINE         PTCLDY    73  68  84 S8        29.89F
BURLINGTON     PTCLDY    70  69  96 S3        29.88F
KENOSHA        PTCLDY    72  69  90 S7        29.89F
FOND DU LAC    CLOUDY    73  69  87 NW5       29.86R
SHEBOYGAN      TSTM     N/A N/A N/A MISG      29.88R
WEST BEND      CLOUDY    70  68  94 S8        29.86F
JUNEAU         CLOUDY    70  68  95 S9        29.87F
$$

LSZ147-162-241000-
LAKE SUPERIOR

STATION/POSITION TIME  TEMP    WIND        PRES    WAVE
                       AIR SEA DIR/SP/G            HT/PER
                 (UTC) (F)     (DEG/KT/KT) (MB)    (FT/S)
W MID LAKE BUOY  0850   61 57  160/  6/  6 1007.4F   1/ 4
DEVILS ISLAND    0800   65      90/  1/  2 1008.0R
PORT WING        0820   63     130/ 22     1006.8F
SAXON HARBOR     0800   72     180/  5/  9 1007.8F
$$

LMZ867-665-643>646-241000-
LAKE MICHIGAN

STATION/POSITION TIME  TEMP    WIND        PRES    WAVE
                       AIR SEA DIR/SP/G            HT/PER
                 (UTC) (F)     (DEG/KT/KT) (MB)    (FT/S)
CHAMBERS ISLAND  0800   72     130/  5/  9 1010.5F
S GREEN BAY BUOY 0800   74 75  200/ 14/ 17   N/A
N MID LAKE BUOY  0850   72 71  180/  8/  8 1010.5F   0
NORTHPORT PIER   0800   72     150/  8/ 13 1010.8F
KEWAUNEE LAKESHO 0800   60      CALM  /  1 1011.1R
SHEBOYGAN LAKESH 0900   63      20/  9/ 15 1012.8R
PORT WASHINGTON  0800   65     210/  6/ 12 1012.5F
MILWAUKEE LAKESH 0810   68     190/  7/  8   N/A
S MID LAKE BUOY  0850   72 72  140/ 16/ 19 1011.2F   1/ 3
KENOSHA   LAKESH 0900   71     190/  9/ 11 1011.5F
$$

TC  - TEMPERATURE IN CELSIUS
VSB - VISIBILITY IN STATUTE MILES
WCI - WIND CHILL INDEX
HX  - HEAT INDEX





USA.gov is the U.S. government's official web portal to all federal, state and local government web resources and services.